Regional Weather Roundup
Issued by NWS Wakefield, VA

Home | Current Version | Previous Version | Text Only | Print | Product List | Glossary Off
Versions: 1 2 3 4 5 6 7 8 9 10 11 12 13 14 15 16 17 18 19 20 21 22 23 24 25 26 27 28 29 30 31 32 33 34 35 36 37 38 39 40 41 42 43 44 45 46 47 48

000
ASUS41 KAKQ 031314
RWRAKQ

REGIONAL WEATHER ROUNDUP
NATIONAL WEATHER SERVICE WAKEFIELD VA
900 AM EDT THU SEP 03 2015

Note: "fair" indicates few or no clouds below 12,000 feet with no
significant weather and/or obstructions to visibility. * = Denotes
station may not report precipitation (e.g., rain,snow,etc.),
thunder or fog.

VAZ042-051-052>054-056-031400-
NORTHERN VIRGINIA

CITY           SKY/WX    TMP DP  RH WIND       PRES   REMARKS
WASH NATIONAL  SUNNY     81  67  62 N6        29.94R
DULLES         SUNNY     78  67  68 NW6       29.95R
FORT BELVOIR   SUNNY     77  69  75 NW8       29.93S
QUANTICO       SUNNY     74  66  76 NW3       29.94S
FREDERICKSBRG* SUNNY     76  68  75 CALM      29.93F
STAFFORD*      SUNNY     74  66  76 CALM      29.98S
WARRENTON      SUNNY     75  69  81 CALM      29.95S
CULPEPER*      SUNNY     73  69  85 CALM      29.96S
MANASSAS*      SUNNY     73  70  88 CALM      29.95R
LEESBURG*      SUNNY     81  70  69 NW6G16    29.96R
WINCHESTER     SUNNY     73  66  78 CALM      29.99S
FRONT ROYAL*   FAIR      72  64  78 S8        29.98S
LURAY*         FAIR      66  66 100 S3        30.01S
$$

VAZ048-049-060>072-079>083-031400-
CENTRAL AND SOUTH CENTRAL VIRGINIA

CITY           SKY/WX    TMP DP  RH WIND       PRES   REMARKS
RICHMOND       MOSUNNY   76  68  76 NW3       29.94S
CHESTERFIELD*  FAIR      73  61  64 NW3       29.96S
PETERSBURG*    SUNNY     75  72  91 CALM      29.95S
HANOVER        SUNNY     76  68  76 CALM      29.96S
TAPPAHANNOCK*  SUNNY     75  66  74 W3        29.95S
QUINTON*       FAIR      72  69  90 CALM      29.93F
CHARLOTTSVILLE SUNNY     74  66  76 VRB3      29.97S
GORDONSVILLE*  FAIR      74  68  81 CALM      29.95F
ORANGE*        SUNNY     77  68  73 CALM      29.97S
LOUISA*        SUNNY     77  68  73 CALM      29.95S
BUMPASS*       FAIR      73  70  89 CALM      29.95F
FARMVILLE*     SUNNY     74  73  97 CALM      29.95F
CREWE*         FAIR     N/A N/A N/A NW7       29.96S
FORT PICKETT*  FAIR      72  68  88 W5        29.96S
CHASE CITY*    FAIR      71  71  99 CALM      29.97S
CLARKSVILLE*   FAIR      70  68  94 CALM      29.97R
SOUTH HILL*    SUNNY     71  67  87 CALM      30.01S
LAWRENCEVILLE* FAIR      72  70  94 CALM      29.95S
EMPORIA*       SUNNY     70  70 100 CALM      29.96S
$$

VAZ088>098-031400-
SOUTHEAST VIRGINIA

CITY           SKY/WX    TMP DP  RH WIND       PRES   REMARKS
NORFOLK        SUNNY     77  68  73 VRB3      29.92S
VIRGINIA BEACH MOSUNNY   81  70  69 NW8       29.91S
NORFOLK NAVAL  MOSUNNY   78  68  71 NW10      29.94S
WEST POINT*    SUNNY     77  69  75 NW3       29.94F
SALUDA*        FAIR      74  69  84 NW7       29.93S
NEWPORT NEWS   SUNNY     78  70  76 NW6       29.93S
LANGLEY AFB    SUNNY     76  70  81 W6        29.92S
FORT EUSTIS    SUNNY     76  76 100 NW6       29.91F
WILLIAMSBURG*  SUNNY     75  72  88 NW3       29.94S
HR EXEC AP*      N/A     72  70  94 W3        29.95S
FRANKLIN*      MOSUNNY   72  70  93 CALM      29.95S
WAKEFIELD      SUNNY     76  67  73 CALM      29.94S
$$

VAZ020-022-025-037-045-031400-
WEST CENTRAL AND SOUTHWEST VIRGINIA

CITY           SKY/WX    TMP DP  RH WIND       PRES   REMARKS
STAUNTON*      SUNNY     69  66  90 CALM      30.05S
WAYNESBORO*    FAIR      71  65  83 CALM      30.04R
HOT SPRINGS VA SUNNY     67  65  93 NW8       30.15S FOG
LYNCHBURG      SUNNY     76  65  68 CALM      30.00S
DANVILLE       MOSUNNY   75  66  73 CALM      29.98S
SOUTH BOSTON*  FAIR      70  68  95 CALM      29.97S
MARTINSVILLE   MOSUNNY   71  71  99 CALM      30.03S
ROANOKE        SUNNY     75  65  70 CALM      30.04F
BLACKSBURG     SUNNY     70  67  90 NW3       30.12S
DUBLIN*        CLOUDY    70  67  90 CALM      30.10S
MARION*        SUNNY     67  64  88 CALM      30.15S
HILLSVILLE*    MOSUNNY   67  64  87 CALM      30.11R
RICHLANDS*     FAIR      68  35  29 CALM      30.13S
WISE*          SUNNY     70  66  88 CALM      30.16R
ABINGDON*      MOSUNNY   71  65  82 CALM      30.11R
$$

MDZ021>025-VAZ099-100-031400-
SOUTHERN MARYLAND AND THE DELMARVA PENINSULA

CITY           SKY/WX    TMP DP  RH WIND       PRES   REMARKS
PATUXENT RIVER SUNNY     77  68  73 NW8       29.91S
BAY BRIDGE APT   N/A     79  68  69 N5        29.91S
LEONARDTOWN    NOT AVBL
DOVER          SUNNY     78  70  75 NW5       29.89S
GEORGETOWN     MOSUNNY   77  70  79 N6        29.91S HAZE
EASTON         SUNNY     77  75  94 CALM      29.95S FOG
CAMBRIDGE      SUNNY     79  70  73 N3        29.91S
SALISBURY      SUNNY     76  72  87 NW8       29.91S
OCEAN CITY     SUNNY     78  71  79 NW8       29.90R
WALLOPS ISLAND SUNNY     79  73  82 NW9       29.91R
ACCOMACK*      SUNNY    N/A N/A N/A NW9       29.91S
$$

NCZ012>017-030>032-031400-
NORTH CENTRAL AND EASTERN NORTH CAROLINA

CITY           SKY/WX    TMP DP  RH WIND       PRES   REMARKS
ROANOKE RAPIDS CLOUDY    70  70 100 CALM      29.95S FOG
RALEIGH        PTSUNNY   73  69  87 CALM      29.97S
ELIZABETH CITY SUNNY     74  70  87 W6        29.93S
AHOSKIE*       FOG       68  67  98 CALM      29.95S VSB 1/2
EDENTON*         N/A     71  69  94 CALM      29.94S
CURRITUCK*     SUNNY     74  69  85 W5        29.93S
KILL DEVIL HLS SUNNY     78  71  78 W6        29.91S
MANTEO         SUNNY     76  71  83 NW5       29.93S
CAPE HATTERAS  MOSUNNY   79  72  79 VRB3      29.93S
TARBORO*       CLOUDY    71  69  93 NW5       29.96S
GOLDSBORO      PTSUNNY   72  71  96 NW3       29.95R
WASHINGTON     CLOUDY    69  68  98 CALM      29.95R FOG
GREENVILLE     CLOUDY    70  70 100 NW3       29.97S FOG
NEW BERN       SUNNY     75  69  81 CALM      29.95R
WILMINGTON     MOSUNNY   80  72  76 S6        29.93R
$$

VAZ048-031400-
ELSEWHERE

CITY           SKY/WX    TMP DP  RH WIND       PRES   REMARKS
HARRISBURG PA  SUNNY     77  67  71 NW10      29.93R
BALTIMORE      MOSUNNY   80  68  66 CALM      29.92R
ANNAPOLIS      SUNNY     78  70  76 NW3       29.91S
ANDREWS AFB    SUNNY     80  67  64 W8        29.93R
PHILADELPHIA   PTSUNNY   81  65  58 NW6       29.91S
HENDERSON NC   SUNNY     70  68  93 CALM      29.97S
GREENSBORO     PTSUNNY   77  65  66 NW5       30.00R
ROCKY MOUNT    MOSUNNY   72  69  90 N5        29.96R FOG
$$

VAZ100-031400-
MARINE

STATION/POSITION TIME  TEMP    WIND        PRES    WAVE   SWELL
                       AIR SEA DIR/SP/G            HT/PER HT/PER
                 (UTC) (F)     (DEG/KT/KT) (MB)    (FT/S) (FT/S)
BRANDYWINE LGT   1200          350/ 10/ 12   N/A
CAPE MAY NJ      1200          350/  5/  8   N/A
LEWES DE         1200          290/  7/  7   N/A
15NM E FENWICK I 1250   76 79  310/  8/ 10 1012.2F   1/11   2/11
OCEAN-CITY-INLET 1200          350/  6/  7   N/A
GOOSES REEF MD   1300   79 80  320/  4/  6 1014.1R
COVE POINT MD    1200   75     300/  4/  5 1013.8R
SOLOMONS ISLAND  1218      81                N/A
BISHOPS HEAD MD  1200          310/  6/  7   N/A
PINEY POINT MD   1217          310/  8/  8   N/A
POTOMAC MD       1300   76 80  290/  8/ 10 1012.0S   1
CAMBRIDGE MD     1200          330/  6/  8   N/A
LEWISETTA VA     1200   72 80  270/  4/  5 1012.8R
RAPPAHANNOCK LGT 1200          270/ 10/ 11 1013.5R
STINGRAY PT      1300   75 80  290/ 12/ 12 1013.6S
YORK RVR RNG VA  1200          310/  9/ 11   N/A
JAMESTOWN VA     1300   74 81  300/  6/  8   N/A
DOMINION TERM VA 1200   74     310/ 11/ 12 1013.2R
KIPTOPEKE VA     1200      80  320/ 11/ 13   N/A
CHES BAY BRIDGE  1200          270/ 11/ 12   N/A
CAPE HENRY VA    1200          290/  8/ 12   N/A
CHESAPEAKE LGHT  1200   77     300/ 12/ 13 1013.8R
WILLOUBY STN VA  1200   74     270/  8/  9 1014.2R
CAPE HENRY BUOY  1228      79                N/A     2/13
1ST LANDING BUOY 1300      79              1013.0S   1/ 3
CAPE CHARLES BUO 1226      77                N/A     2/ 9   2/ 9
OFFSHORE WE BUOY 1211      79                N/A     2/ 3   2/ 8
64NM E OF VA BCH 1250   78 78  310/ 10/ 12 1012.4S   2/ 4   2/ 9
DUCK PIER NC     1218   74 80  300/  6/  7 1012.4S
44100 DUCK FRF   1224      79                N/A     2/13
44056 DUCK FRF   1211      80                N/A     1/ 9
OREGON INLET NC  1200          330/  5/  7   N/A
HATTERAS NC      1200          360/  8/ 10   N/A
DIAMOND SHLS NC  1250   79 85   10/ 10/ 12 1013.4R   2/ 9   2/ 9
CAPE LOOKOUT NC  1300   76      40/  6/  7 1013.5R
$$


USA.gov is the U.S. government's official web portal to all federal, state and local government web resources and services.